CAPE
114 9 121 1372 371 356 109 133 200 296 265 224 327 329 460 662 710 564 796 871 956 1092 1530 1768 2390 2646 2795 2279 1968 1240 961 716 779 1007 1135 1095 1020 887 931 991 978 1073 963 819 1088 1158 1096 1383 1125
56 242 362 1352 921 325 138 166 271 297 296 487 844 296 129 151 203 539 769 837 865 1104 1181 1514 2482 2607 2135 2738 2189 1933 1171 972 1020 1083 979 786 808 984 842 852 925 1067 1123 987 923 993 1232 1297 1130
226 1070 1570 1432 371 151 85 138 200 282 336 501 662 520 111 196 351 430 671 654 851 855 928 1523 2654 2618 2230 2371 2475 2165 1968 1501 1322 1023 545 613 850 1070 947 870 922 1032 1061 949 1071 1065 1346 1139 1129
1323 1504 1666 1228 70 14 21 59 93 117 318 493 263 121 52 164 362 539 517 659 584 792 1147 2315 2540 2090 2069 2128 2227 2029 1559 1394 1191 924 975 945 857 855 839 774 881 829 1080 822 911 1488 1412 906 1082
1020 2034 1432 754 3 9 34 45 12 72 747 498 134 144 114 222 243 447 445 475 392 1074 1423 1783 2451 2387 2230 2208 2156 2232 1806 1468 1270 1094 1043 944 925 902 932 824 949 989 1154 765 965 976 1040 694 795
227 665 1029 62 13 53 86 10 0 1 454 272 183 241 80 99 124 189 364 551 1087 1127 1403 1623 2182 2314 1895 1462 1454 1398 1314 1222 1151 1084 1020 959 1026 1175 825 698 770 969 921 984 1074 1115 672 637 742
412 608 1056 99 32 35 24 15 0 0 154 437 341 111 5 0 0 1 166 783 721 619 907 1202 1455 1438 1551 1457 1454 1397 1295 1240 1141 1009 1241 1163 1381 1093 864 856 776 612 1077 1081 667 626 767 1086 1197
420 1161 789 87 1 13 11 1 0 0 0 243 199 110 0 0 0 0 246 728 394 335 492 694 990 967 944 988 1971 1660 1299 1205 1264 1188 1036 1315 1301 1107 882 1396 1487 875 853 649 853 1264 1539 1316 1288
102 647 675 286 0 0 0 0 0 0 0 71 91 51 0 0 0 0 35 310 154 189 301 345 598 649 601 693 1111 2167 1725 1665 1533 1381 1281 1679 941 978 781 997 1162 1128 1221 1411 1533 1516 570 1302 1477
305 383 707 34 2 3 11 0 2 13 48 87 56 0 0 0 0 0 0 82 96 96 107 256 335 333 280 655 1041 1149 1082 678 855 953 681 948 700 599 643 1273 1405 1757 1771 1551 1758 1992 1507 1441 588
64 92 379 126 21 52 28 26 33 154 0 78 20 0 0 0 0 0 0 0 38 131 125 278 225 273 485 798 867 696 831 683 788 761 708 811 791 852 1158 1124 1688 1604 1926 943 1667 1726 1037 627 715
309 416 333 334 30 91 16 46 19 60 5 5 0 0 0 0 0 0 0 0 0 21 156 336 262 288 32 299 786 738 736 794 587 806 1030 921 647 556 399 1177 1079 1226 802 643 391 900 0 380 877
408 452 205 237 184 215 288 594 304 129 7 0 0 0 0 0 0 0 0 0 0 0 96 400 344 300 277 903 877 718 648 781 664 1019 1047 711 615 930 746 1025 1541 1386 1179 638 777 626 48 486 937
488 475 176 359 333 328 502 451 533 288 16 0 0 0 0 0 0 0 0 0 0 0 0 0 337 320 358 637 843 383 344 672 728 595 960 614 727 1083 1104 1069 1296 1200 1098 1017 1414 1268 820 921 1007
352 334 17 401 390 408 171 213 211 292 96 4 0 0 0 0 0 0 0 0 0 0 0 0 136 317 403 641 469 530 647 171 418 595 552 751 1099 1125 1189 755 952 664 798 942 1104 884 475 335 641
487 343 0 70 330 90 21 67 0 2 186 131 0 0 0 0 0 0 0 0 0 0 0 55 296 329 712 732 612 629 506 421 620 362 944 910 976 727 956 563 502 635 771 1247 1179 1020 998 832 904
278 623 142 103 224 95 185 62 90 0 378 256 28 0 0 0 0 0 42 13 84 16 47 80 63 416 485 794 1020 678 806 834 545 541 524 1157 1298 838 854 986 478 518 588 792 1134 1258 1372 1407 1369
161 265 378 314 439 120 258 258 368 38 390 261 31 0 0 0 0 0 12 48 59 526 342 269 240 342 571 1100 833 936 692 730 728 474 492 511 1354 1276 1139 893 1071 1177 1178 924 845 1188 1883 1933 1127
116 59 9 393 383 490 457 503 482 423 462 336 135 58 0 0 0 0 0 5 68 592 696 732 448 1195 876 1228 1013 1182 1043 928 815 824 757 601 1090 1249 1320 1260 932 949 1030 886 1303 2078 1839 1017 446
103 27 37 5 70 25 379 608 619 521 304 416 399 231 113 5 0 0 1 10 65 406 496 754 891 1434 1283 1362 1208 1237 1354 1215 1053 986 950 939 1151 1239 1299 1195 1126 1098 1082 696 811 1161 1690 1524 966
12 1 4 7 3 0 55 183 223 234 115 347 536 475 412 245 130 32 64 155 285 399 843 883 1197 2046 1704 1724 1623 1838 1780 1707 1787 1399 1371 1334 1073 1069 1329 1254 1047 929 784 855 762 704 1269 1196 1502
0 0 0 7 0 10 0 1 0 1 74 37 30 562 574 549 449 393 393 502 571 918 1014 1525 1430 1623 2024 1684 1855 1907 1882 1754 1608 1749 1906 1722 1545 1192 1249 1212 1476 1094 930 724 685 1244 1246 1550 1217
26 19 5 0 0 0 0 0 0 0 0 0 10 290 350 573 665 679 773 796 866 960 1495 1528 1975 2266 2343 2536 2051 2438 2447 2178 2317 2369 2112 2076 2127 1662 1658 1582 1307 1602 1414 771 481 609 1015 1646 1610
0 0 20 23 0 8 8 14 51 0 0 0 0 0 0 221 566 513 998 999 1082 1179 1417 1683 2135 2091 2522 2879 2816 2494 2467 2691 2668 2566 3708 3794 2512 2834 2439 1956 1869 1801 1610 1521 1489 1067 936 1212 1238
0 27 10 28 79 88 42 14 50 20 0 0 0 0 5 4 132 59 791 930 1265 1357 1504 1758 2411 2484 2664 3131 3445 3251 3254 3523 3670 3645 3615 3312 3073 2927 2732 2618 2570 2510 2456 2378 2058 1899 2024 1676 1287
0 3 24 92 70 20 38 48 21 1 2 27 60 31 34 14 12 20 166 388 614 820 662 1233 2509 2629 3320 3348 3855 3815 3565 3769 3983 3852 3718 3358 3104 2982 2795 2897 2610 2597 2552 2262 2155 2059 1917 1734 1472
0 0 0 0 1 0 0 0 52 27 0 10 0 0 0 0 0 5 118 165 223 235 281 288 2978 3364 3838 3622 3468 3746 3912 3860 3683 3565 3595 3531 3316 3492 3164 2934 2849 2742 2185 1985 2114 2163 2132 1974 1896
0 0 0 0 1 8 2 1 61 100 44 0 0 0 5 22 38 158 335 186 84 6 10 1788 3789 3679 3543 3492 3582 3804 3983 3947 3695 3592 3506 3333 2905 2933 2847 2688 2647 2646 2524 2407 2197 2144 2056 1982 1943
0 0 0 0 0 1 0 0 0 60 2 0 0 1 4 7 117 194 139 239 91 0 0 3643 3913 3857 3705 3750 4002 3992 3987 3938 3887 3788 3614 3509 3327 3094 2954 2727 2098 1774 1912 2186 2119 2051 1902 1883 1755
0 0 0 0 0 0 0 0 0 0 0 0 75 220 211 182 359 339 716 1201 1610 273 2036 2967 3500 3564 3616 4049 3919 3869 3704 3785 3832 3732 3488 3281 3183 2977 2303 2022 2014 1984 1705 1620 1970 1830 1841 1604 1509
CIN
-461 -536 -529 -270 -171 -226 -70 -17 -27 -42 -35 -51 -62 -73 -96 -93 -33 -128 -84 -83 -80 -53 -15 -2 0 0 0 0 0 -4 -16 -17 -15 -11 0 -1 -2 -1 0 0 0 0 0 -2 0 0 -1 0 -8
-392 -293 -272 -63 -62 -44 -81 -25 -40 -46 -38 -43 -56 -140 -212 -235 -262 -213 -123 -86 -88 -66 -44 -3 0 0 -1 0 0 0 -6 -6 -3 -4 -7 -7 -6 -1 0 -3 0 0 0 0 0 0 0 -1 -10
-430 -206 -92 -40 -71 -37 -28 -35 -48 -40 -39 -20 -46 -87 -233 -264 -230 -198 -127 -114 -81 -69 -59 -3 0 0 0 0 0 0 0 0 0 -3 -16 -11 -3 -2 0 0 0 0 0 0 0 0 0 -1 -10
-129 -151 -101 -76 -24 -23 -44 -48 -42 -53 -25 -68 -138 -238 -306 -243 -207 -197 -153 -79 -96 -62 -38 0 0 0 0 0 0 0 -1 -4 -5 -5 -6 -5 -3 -4 -1 -1 0 -1 0 -4 0 0 0 -7 -6
-242 -60 -48 -59 -14 -13 -35 -33 -83 -55 -21 -64 -174 -204 -237 -192 -187 -172 -157 -120 -127 -60 -33 0 0 0 0 0 0 0 0 0 0 -3 -3 -2 -1 -1 0 -1 -1 -5 0 -3 0 0 0 -8 -16
-348 -232 -70 -29 -7 -10 -15 -14 0 -12 -48 -78 -116 -131 -253 -239 -229 -215 -155 -122 -109 -93 -47 -11 0 0 0 -4 0 0 0 0 0 -1 0 0 0 0 -5 -12 -8 -4 -3 -1 -5 -2 -18 -18 -22
-257 -255 -108 -25 -11 -13 -5 -18 0 0 -45 -48 -96 -171 -111 0 0 -24 -226 -119 -127 -157 -139 -71 -12 -4 0 0 0 0 0 0 0 0 0 0 -1 -3 -10 -8 -6 -15 -6 -9 -28 -32 -29 -15 -9
-290 -119 -96 -10 -2 -17 -4 -5 0 0 0 -46 -146 -182 0 0 0 0 -115 -121 -159 -211 -177 -157 -111 -87 -63 -40 0 0 -5 -2 0 -1 -3 0 -1 -4 -12 -3 -2 -26 -40 -43 -28 -8 0 -5 -7
-105 -76 -96 -23 -2 0 0 0 0 0 0 -59 -104 -212 0 0 0 0 -162 -176 -220 -206 -218 -198 -169 -137 -116 -86 -39 -1 -5 -4 -3 -9 -10 -3 -27 -28 -41 -35 -27 -33 -39 -21 -13 -5 -40 -11 -23
-226 -158 -56 -11 -17 -19 -16 0 -32 -34 -95 -134 -206 0 0 0 0 0 0 -256 -270 -254 -248 -227 -207 -185 -177 -85 -64 -47 -33 -58 -58 -53 -59 -40 -71 -88 -65 -44 -20 -12 -27 -31 -21 -9 -17 -33 -125
-271 -179 -34 -18 -23 -12 -3 -22 -37 -29 -4 -143 -190 0 0 0 0 0 0 0 -307 -244 -248 -200 -212 -213 -158 -75 -99 -99 -75 -90 -96 -108 -98 -72 -63 -59 -51 -46 -9 -30 -24 -88 -41 -47 -65 -132 -122
-200 -65 -65 -27 -25 -24 -11 -44 -21 -59 -60 -132 0 0 0 0 0 0 0 0 0 -109 -202 -188 -197 -198 -272 -189 -128 -112 -97 -92 -118 -117 -100 -92 -101 -94 -98 -80 -67 -86 -121 -139 -140 -111 0 -214 -150
-234 -141 -12 -44 -22 -19 -25 -44 -20 -24 -69 0 0 0 0 0 0 0 0 0 0 0 -196 -148 -181 -170 -164 -132 -104 -119 -129 -111 -118 -88 -97 -99 -87 -70 -89 -63 -69 -86 -103 -137 -137 -162 -132 -202 -127
-111 -43 -54 -12 -36 -39 -38 -40 -28 -36 -145 0 0 0 0 0 0 0 0 0 0 0 0 0 -176 -200 -152 -111 -73 -150 -139 -71 -113 -114 -94 -106 -107 -69 -64 -52 -84 -74 -75 -76 -91 -127 -182 -194 -118
-53 -68 -96 -57 -64 -42 -69 -57 -52 -67 -134 -40 0 0 0 0 0 0 0 0 0 0 0 0 -189 -156 -124 -84 -108 -104 -81 -161 -182 -131 -127 -104 -89 -76 -48 -70 -62 -59 -49 -85 -115 -126 -190 -241 -179
-79 -201 0 -111 -62 -134 -101 -163 0 -22 -135 -128 0 0 0 0 0 0 0 0 0 0 0 -270 -154 -183 -124 -137 -158 -141 -153 -176 -102 -187 -139 -116 -88 -91 -63 -92 -117 -92 -84 -50 -97 -101 -163 -207 -154
-201 -84 -196 -178 -113 -153 -147 -226 -262 0 -106 -76 -97 0 0 0 0 0 -243 -304 -270 -255 -333 -321 -374 -249 -233 -186 -158 -200 -160 -148 -192 -192 -222 -128 -97 -137 -112 -112 -142 -133 -118 -95 -58 -48 -51 -64 -85
-40 -28 -58 -88 -62 -100 -201 -124 -143 -184 -108 -54 -102 0 0 0 0 0 -302 -283 -339 -225 -287 -294 -311 -349 -278 -201 -224 -200 -230 -230 -227 -285 -266 -229 -120 -131 -140 -156 -125 -103 -99 -100 -98 -56 -55 -36 -50
-36 -81 -186 -80 -25 -40 -110 -90 -96 -77 -103 -39 -125 -166 0 0 0 0 0 -352 -365 -235 -221 -226 -289 -217 -257 -217 -234 -213 -221 -236 -248 -228 -227 -261 -176 -149 -164 -185 -189 -163 -138 -128 -97 -59 -48 -81 -124
-28 -38 -43 -14 -22 -9 -95 -54 -50 -75 -59 -55 -118 -149 -174 -66 0 0 -70 -395 -396 -296 -290 -252 -265 -203 -227 -231 -243 -220 -206 -216 -215 -221 -193 -176 -168 -162 -168 -179 -193 -168 -154 -179 -138 -89 -59 -76 -124
-18 -29 -55 -14 -9 0 -31 -128 -30 -54 -63 -44 -86 -106 -129 -202 -262 -377 -359 -335 -315 -321 -273 -271 -216 -186 -197 -231 -232 -190 -192 -169 -149 -177 -159 -153 -171 -167 -154 -181 -207 -202 -189 -173 -162 -133 -90 -39 -70
0 0 0 -3 -2 -74 0 -7 0 -4 -49 -58 -79 -67 -86 -95 -161 -236 -256 -256 -247 -255 -250 -226 -231 -234 -221 -256 -206 -191 -171 -181 -183 -130 -91 -107 -150 -197 -176 -193 -155 -169 -172 -158 -175 -98 -81 -72 -40
-11 -28 -19 -4 -9 -10 0 0 0 0 0 0 -116 -52 -69 -68 -98 -136 -204 -201 -189 -224 -264 -262 -255 -241 -223 -235 -238 -220 -219 -229 -179 -143 -142 -129 -151 -190 -179 -171 -191 -133 -149 -157 -206 -156 -118 -84 -43
0 0 -76 -117 0 -165 -166 -137 -48 -19 0 0 0 0 0 -44 -84 -129 -142 -142 -178 -152 -207 -274 -296 -317 -294 -274 -253 -251 -219 -194 -162 -138 -53 -57 -137 -119 -149 -164 -133 -119 -118 -115 -112 -114 -135 -107 -93
0 -18 -33 -46 -77 -51 -113 -70 -26 -71 0 0 0 0 -18 -12 -119 -142 -134 -143 -131 -130 -142 -211 -294 -296 -337 -302 -249 -216 -207 -145 -103 -84 -78 -88 -88 -82 -101 -109 -98 -94 -95 -106 -83 -71 -57 -56 -69
0 -4 -54 -21 -4 -55 -97 -33 -74 -109 -67 -97 -75 -51 -37 -77 -84 -167 -119 -78 -197 -177 -228 -202 -250 -284 -310 -276 -267 -219 -201 -157 -113 -99 -103 -117 -125 -118 -101 -88 -80 -77 -74 -67 -70 -74 -67 -69 -67
0 0 0 0 -95 0 -4 0 -40 -51 0 -99 0 0 0 0 -7 -61 -321 -211 -373 -598 -468 -584 -224 -299 -272 -263 -256 -214 -174 -145 -138 -118 -104 -107 -106 -72 -64 -66 -57 -50 -65 -72 -73 -53 -46 -44 -35
0 0 0 0 -7 -21 -33 -6 -34 -36 -25 0 0 0 -210 -199 -327 -676 -591 -556 -621 -491 -656 -460 -250 -323 -338 -278 -219 -201 -162 -127 -117 -98 -87 -90 -99 -82 -69 -60 -47 -45 -50 -41 -36 -39 -45 -34 -27
0 0 0 0 0 -6 0 0 0 -50 -17 -2 0 -59 -238 -224 -223 -317 -680 -781 -841 0 0 -248 -246 -272 -254 -236 -189 -150 -134 -119 -94 -80 -80 -76 -76 -72 -59 -53 -79 -75 -50 -36 -24 -24 -31 -27 -21
0 0 0 0 0 0 0 0 0 0 0 0 -152 -133 -170 -205 -250 -257 -241 -264 -336 -578 -389 -263 -265 -280 -264 -200 -174 -152 -141 -107 -87 -82 -86 -84 -76 -67 -87 -72 -60 -51 -54 -32 -15 -15 -13 -21 -18
Wind_Speed
6 7 5 7 7 2 3 5 10 13 9 7 16 14 15 11 3 6 15 19 20 15 14 13 14 16 16 16 15 15 15 13 12 11 11 11 10 9 8 9 9 10 9 8 8 8 8 8 6
4 10 1 2 2 2 3 9 15 13 7 9 17 19 17 15 10 16 14 21 18 16 13 11 14 16 15 15 14 14 13 13 12 10 9 8 8 9 7 6 7 7 6 6 6 7 7 7 6
5 6 3 5 2 1 7 11 11 7 8 9 8 9 10 11 19 17 20 21 19 15 13 13 15 16 16 15 14 13 12 12 11 10 9 7 6 9 7 6 6 5 5 5 5 6 8 8 6
5 3 3 2 6 7 11 8 9 8 11 18 16 12 9 17 10 18 24 23 19 16 15 16 17 17 16 15 14 12 11 11 10 10 8 6 6 6 6 6 5 4 5 4 4 4 7 6 6
3 1 1 4 8 10 10 14 12 12 20 20 19 13 10 18 21 26 25 21 19 16 15 14 16 15 15 15 14 12 11 11 10 8 7 6 6 5 5 6 5 5 5 5 6 5 5 5 5
6 3 4 2 10 9 7 9 15 13 20 19 19 13 7 17 17 17 21 20 22 19 15 14 16 16 15 15 14 13 12 11 10 9 8 7 7 6 6 6 7 7 7 7 8 7 5 5 5
6 1 5 2 12 14 6 8 9 10 13 16 15 14 8 10 12 10 18 22 20 18 17 14 11 13 15 14 14 13 12 11 10 9 8 8 8 8 7 7 7 7 8 8 7 7 6 5 5
6 5 6 4 11 6 8 14 14 11 7 21 21 7 13 12 12 9 17 20 20 18 15 14 13 11 9 9 15 14 14 13 11 9 10 10 9 8 9 8 8 10 9 9 8 7 6 5 6
2 4 6 4 10 5 8 10 10 8 10 12 6 18 20 17 14 7 12 18 17 15 16 14 13 11 11 9 11 15 16 15 14 12 13 10 4 6 8 9 11 12 13 12 10 8 7 6 7
4 3 6 5 6 9 9 12 9 8 16 19 19 19 18 17 15 9 7 18 19 19 17 15 14 13 12 11 10 8 8 6 5 6 6 5 7 6 11 12 16 16 15 13 11 10 9 6 4
2 4 5 8 7 9 13 12 7 9 12 20 23 19 17 15 10 10 7 8 17 19 15 17 15 14 14 11 8 6 6 6 6 9 8 8 6 7 6 3 5 6 12 5 7 6 3 1 3
10 11 12 4 3 2 9 11 10 16 13 19 19 17 13 15 11 12 8 10 7 15 18 20 17 15 13 6 9 9 7 7 6 8 10 6 4 4 5 5 6 6 5 7 5 4 5 5 4
9 17 8 10 1 2 14 10 4 16 18 19 19 16 12 10 10 10 9 11 8 7 14 16 15 12 10 11 8 7 10 9 9 7 9 5 5 5 6 6 7 7 6 6 4 5 4 4 5
7 11 5 2 10 7 8 6 4 13 17 16 16 11 11 11 10 8 9 12 10 10 9 11 15 10 8 7 7 4 4 4 8 6 6 6 6 4 4 4 7 7 7 8 6 8 9 7 6
3 3 6 4 3 4 4 5 3 3 14 15 13 10 10 10 9 9 9 8 10 10 10 10 11 10 8 7 6 3 0 1 6 8 9 8 6 5 2 1 2 3 3 5 5 7 5 4 5
6 5 2 6 3 0 8 7 8 6 1 12 13 11 9 9 10 9 8 9 10 8 9 10 9 9 8 7 5 3 3 3 2 4 8 11 9 7 5 3 3 4 4 3 5 4 4 5 5
6 2 5 5 5 9 4 6 9 5 4 7 9 9 9 8 8 8 9 9 10 9 10 9 9 10 9 8 5 5 5 4 4 3 5 11 10 9 6 5 5 6 4 4 4 4 4 4 5
3 5 8 7 12 12 7 6 6 8 8 10 11 10 9 9 8 10 10 9 10 10 10 10 8 10 11 7 5 4 4 5 5 5 5 7 9 11 7 6 6 5 4 5 4 4 3 3 3
8 12 19 15 13 14 15 9 10 11 9 13 12 10 10 10 10 11 9 9 12 11 10 10 9 9 9 6 6 4 7 4 4 5 8 7 8 10 9 7 7 6 5 6 5 3 4 2 2
16 5 5 5 9 4 17 6 15 15 11 15 18 14 13 10 9 11 10 9 13 12 13 10 10 9 11 9 8 4 5 5 7 7 9 10 9 11 10 9 7 6 5 6 6 5 3 3 4
4 3 1 6 5 14 10 13 9 10 7 13 18 18 15 16 14 15 14 14 14 15 15 15 15 14 12 11 8 4 3 3 3 4 5 9 9 8 11 11 8 7 6 5 7 7 7 7 4
3 6 4 10 8 3 4 3 4 5 5 7 7 16 16 16 16 17 17 15 16 17 17 17 17 17 15 15 11 10 9 9 6 5 5 6 10 10 8 9 11 11 8 8 6 6 7 5 9
6 6 12 10 4 5 4 6 9 5 5 8 9 13 12 16 17 21 21 20 19 16 19 19 18 17 17 15 15 10 9 8 5 4 7 7 8 12 11 11 10 10 8 10 11 9 6 5 6
8 6 10 5 5 2 10 7 5 4 7 7 7 9 10 12 18 16 23 21 18 16 17 19 19 20 17 17 16 15 14 9 5 6 3 2 4 4 7 11 12 12 10 10 9 9 9 9 5
2 5 2 2 3 7 12 2 10 9 7 6 13 9 13 13 13 11 21 14 12 9 15 15 18 18 17 17 14 15 11 8 8 6 4 4 4 4 6 8 9 9 11 11 9 10 10 10 9
6 6 5 3 1 2 12 5 5 6 5 5 2 6 9 8 9 3 21 16 6 5 14 12 18 15 14 16 14 12 11 7 6 6 5 5 4 4 4 6 7 7 8 9 9 8 8 9 9
7 3 7 2 9 7 4 3 6 5 5 5 3 8 6 11 11 9 7 19 16 14 28 16 15 15 15 14 10 8 7 7 6 7 6 5 5 4 5 3 4 6 7 7 8 8 9 8 8
3 5 9 6 2 5 2 5 7 5 7 5 2 8 8 8 11 11 9 12 15 23 24 9 11 14 11 9 6 6 6 5 5 4 6 6 6 4 6 6 6 6 6 6 6 7 7 9 8
5 7 5 3 6 7 5 8 6 6 7 6 8 8 8 7 6 8 9 13 17 17 4 7 10 9 8 8 8 8 7 7 6 6 6 6 6 7 7 7 6 7 7 7 6 7 8 10 9
3 4 4 6 9 1 5 4 6 1 7 11 11 8 9 8 6 4 4 5 5 7 6 6 6 7 6 6 6 7 8 8 8 7 7 7 8 7 7 6 6 7 7 7 7 7 6 7 7
Wind_Direction
177 227 302 24 50 94 274 86 87 76 56 45 83 76 74 47 116 138 129 120 130 134 137 137 142 149 155 144 141 140 140 139 139 139 139 135 130 123 114 115 111 112 122 120 118 115 117 115 124
254 194 201 146 285 183 13 80 90 93 124 103 96 91 70 73 86 119 112 128 130 133 134 136 137 142 143 146 146 147 149 150 151 157 149 153 162 141 138 130 119 118 122 115 119 121 124 118 121
217 270 144 163 236 268 96 87 94 129 150 114 66 50 75 117 122 139 132 134 131 136 132 138 134 136 143 144 147 149 153 154 156 158 151 150 162 141 144 145 136 131 130 128 142 145 137 133 133
227 128 307 200 154 111 118 125 128 107 91 95 107 66 106 129 109 135 142 135 136 137 132 140 137 138 142 144 148 151 161 156 166 156 151 153 152 151 160 171 161 158 155 151 161 144 135 140 143
13 311 331 255 83 89 119 142 136 102 88 96 99 109 86 105 122 134 139 140 134 129 134 139 141 138 141 141 143 151 159 161 164 156 160 171 169 176 192 202 179 182 166 163 172 168 153 152 169
53 12 335 148 114 73 46 95 99 102 107 108 106 108 98 125 134 141 143 129 132 136 139 144 144 145 145 145 148 155 161 167 171 174 180 183 196 199 198 192 182 177 176 173 172 181 166 171 189
95 55 237 12 109 92 70 66 112 111 129 134 125 116 138 131 147 143 134 133 134 138 143 141 145 150 154 159 160 165 173 180 182 189 192 200 200 201 198 195 172 171 180 188 190 184 184 207 218
136 184 292 188 98 83 80 74 91 93 101 128 136 147 153 156 153 152 128 138 138 141 145 151 153 157 163 172 173 177 184 190 193 193 203 207 206 210 206 195 184 186 196 194 199 203 208 221 245
51 282 309 302 105 136 125 105 100 144 85 50 120 136 142 149 139 157 131 141 139 148 156 163 159 166 172 175 186 188 188 190 193 197 202 206 203 208 212 205 205 197 202 203 209 202 212 225 243
103 159 236 81 137 149 158 128 126 130 109 93 104 119 140 147 149 165 150 151 155 158 164 164 167 175 176 180 181 179 195 193 191 197 199 197 210 208 204 208 206 206 212 211 209 208 213 229 220
22 229 280 51 46 12 136 117 117 126 123 129 132 139 149 146 157 155 178 164 165 164 167 167 172 181 181 180 168 182 193 196 199 208 191 202 221 211 199 183 193 206 216 218 204 216 145 254 273
317 262 256 67 102 27 98 126 113 95 121 131 134 141 149 156 164 169 178 165 177 159 172 167 172 180 180 174 173 185 188 196 198 206 195 195 199 197 204 171 187 197 215 220 201 172 143 200 155
279 275 310 149 129 43 75 46 322 105 108 121 129 141 152 167 170 172 173 168 168 157 170 169 171 179 181 163 180 189 195 198 187 185 191 191 197 192 212 199 192 198 212 219 182 142 196 179 174
209 258 7 168 84 62 87 55 48 90 114 116 128 149 168 169 179 170 173 173 163 162 175 139 157 174 166 151 173 194 165 189 174 177 191 205 197 212 226 171 187 195 200 217 155 161 190 208 157
142 74 324 54 140 108 98 27 319 50 127 136 141 158 181 170 170 166 175 158 153 165 166 145 152 137 137 135 140 139 225 300 163 184 180 197 218 199 238 234 310 252 252 151 164 185 197 194 164
350 62 18 252 169 143 93 254 269 142 167 146 155 167 173 178 163 168 161 155 140 153 153 150 150 148 142 146 154 171 234 241 256 197 181 193 204 197 192 222 248 265 264 214 201 198 200 211 168
303 53 248 306 190 164 131 259 251 252 162 170 152 158 169 178 167 167 161 160 155 167 157 160 151 160 161 164 164 184 221 251 238 243 189 193 198 198 181 190 225 246 259 251 233 218 190 221 171
348 263 257 243 190 179 139 231 251 215 203 186 155 163 176 179 179 171 167 168 168 153 158 157 161 165 169 164 167 182 211 235 232 236 229 213 197 190 183 194 204 228 243 264 253 226 205 201 168
231 209 233 235 168 154 189 182 205 211 208 183 160 168 174 182 184 171 172 178 166 157 157 163 167 159 164 168 178 187 208 218 223 230 237 230 200 197 191 197 205 211 224 232 250 226 202 221 167
252 306 350 97 168 155 174 115 209 205 176 171 165 175 180 181 173 170 174 177 165 168 171 171 172 169 178 180 188 186 194 210 216 219 226 230 194 200 200 200 201 204 215 235 238 229 238 246 182
241 226 281 207 58 64 96 179 167 202 176 181 172 178 177 184 175 176 183 182 172 180 179 184 185 184 186 179 180 189 185 235 217 227 228 228 211 190 196 200 199 202 198 220 234 230 214 241 244
47 239 348 148 72 145 75 143 279 202 118 156 196 183 182 187 182 178 186 189 188 185 186 187 192 193 193 187 188 192 204 214 214 213 216 218 205 206 195 191 201 210 211 220 215 225 232 203 235
229 247 125 105 87 80 25 89 259 146 191 198 219 178 187 186 185 182 189 194 198 186 186 190 193 197 198 191 196 191 199 208 204 219 229 227 211 201 204 209 206 206 207 221 219 223 213 206 215
268 281 81 55 127 76 188 154 267 217 196 206 197 200 186 189 193 187 190 190 195 200 191 189 193 199 195 193 196 201 211 209 216 239 206 237 227 219 214 211 214 218 222 223 223 231 227 228 218
148 323 122 271 341 226 151 129 231 204 195 207 187 212 180 197 193 200 190 179 186 217 208 190 193 205 198 187 191 200 200 189 199 212 213 236 237 226 227 216 221 220 220 222 225 235 234 242 242
285 186 175 242 270 271 133 157 250 187 193 245 266 270 221 214 206 104 102 90 281 57 296 282 189 198 192 192 180 188 193 200 197 197 203 226 227 232 222 220 231 228 225 232 223 226 232 235 240
289 352 246 270 119 69 224 337 18 171 192 245 218 23 10 53 105 100 82 158 172 176 224 216 207 184 182 186 183 172 177 182 191 206 208 214 224 232 254 257 242 244 246 232 221 229 235 230 235
224 258 354 346 49 83 31 169 206 187 213 153 149 66 68 65 94 125 136 154 180 202 227 192 189 168 159 149 172 166 166 185 206 218 226 222 231 231 255 261 262 264 241 242 231 236 230 224 232
354 346 1 97 95 122 177 276 227 157 168 113 88 85 76 56 67 128 172 180 199 216 207 179 150 138 158 170 164 163 172 182 199 222 236 236 238 234 237 236 247 253 254 242 236 239 237 228 230
271 53 65 99 316 307 116 274 79 211 53 66 65 55 38 27 30 11 58 119 123 139 172 141 132 151 153 160 163 183 178 176 187 210 223 230 235 226 221 233 247 251 242 248 235 240 226 224 227